Location: Chiroubles
(46.1812°N, 4.6660°E)
Time: 21:44:02
(UTC+00:00)

Courier 1B - Pass Details

Date: 05 August 2021
Orbit: 963 x 1209 km, 28.3° (Epoch: 25 September)

Event Time Altitude Azimuth Distance (km) Brightness Sun altitude
Rises 20:45:16 0° 249° (WSW) 4,107 11.1 -14.9°
Reaches altitude 10° 20:49:36 10° 228° (SW) 3,130 10.2 -15.4°
Maximum altitude 20:53:38 15° 197° (SSW) 2,740 9.6 -15.9°
Enters shadow 20:56:02 13° 176° (S) 2,859 9.5 -16.2°
